Retour au catalogue

OPS 4682 DEB

ActifPO
NORAD 14515·DEBRIS·🇺🇸 United States

Lancé Apr 3, 1965 depuis Vandenberg Space Force Base

Loading…

Prochains Passages (prochaines 24 heures)

TLE

FraisSource: Space-Track

Époque: Sep 13, 2026, 14:01 UTC

1 14515U 65027M   26256.58469970 -.00000195  00000-0 -69750-3 0  9992
2 14515  90.2516  10.0995 0030879 188.7687 171.2898 12.97426796595779

Suivez OPS 4682 DEB en temps réel avec AllMySat

Download on the App Store